Preview of NWS' New Version of Forecast
This preview is not operational and should not be used for support decisions.
Latest weather observations around

Bangor, Bangor International Airport (KBGR)

Using English Units (Switch to International System of Units)
Date/ Time (EDT) Wind (mph) Vis. (mi) Weather Sky Cond. Temp (°F) Rel. Humidity Wind Chill (°F) Heat Index (°F) Pressure Precip. (in)
Air Dwpt 6 hour Altimeter (inHg) Sea level (inHg) 1 hr 3 hr 6 hr
Max Min
Oct 15 10:53 S 14 10 Mostly Cloudy FEW060 SCT120 BKN200 56        %     30.13 30.13      
Oct 15 09:53 SSE 6 10 Mostly Cloudy SCT120 BKN250 50        %     30.16 30.16      
Oct 15 08:53 Calm 10 Partly Cloudy FEW120 SCT250 43        %     30.17 30.17      
Oct 15 07:53 Calm 10 Mostly Clear FEW120 FEW250 37        %     30.19 30.19      
Oct 15 06:53 Calm 10 Patchy Fog FEW120 SCT250 34        %     30.19 30.19      
Oct 15 05:53 Calm 10 Mostly Clear FEW250 34        %     30.19 30.19      
Oct 15 04:53 Calm 10 Mostly Clear FEW250 35        %     30.2 30.2      
Oct 15 03:53 Calm 10 Mostly Clear FEW250 32        %     30.2 30.2      
Oct 15 02:53 Calm 10 Mostly Clear FEW250 34        %     30.19 30.19      
Oct 15 01:53 Calm 10 Clear CLR 35        %     30.19 30.19      
Oct 15 00:53 Calm 10 Clear   36        %     30.2 30.2      
Oct 14 23:53 S 3 10 Clear CLR 38        % 36   30.2 30.2      
Oct 14 22:53 S 3 10 Clear CLR 40        % 38   30.18 30.19      
Oct 14 21:53 3 10 Mostly Clear FEW150 43        % 41   30.17 30.17      
Oct 14 20:53 W 6 10 Partly Cloudy SCT150 43        % 39   30.16 30.16      
Oct 14 19:53 SSW 3 10 Mostly Clear FEW150 42        % 40   30.14 30.15      
Oct 14 18:53 SSW 5 10 Partly Cloudy SCT150 SCT200 45        % 43   30.13 30.13      
Oct 14 17:53 SSW 3 10 Partly Cloudy FEW150 SCT200 47        % 46   30.11 30.11      
Oct 14 16:53 WSW 6 10 Mostly Clear FEW200 54        %     30.09 30.09      
Oct 14 15:53 5 10 Mostly Clear FEW050 FEW250 55 29     37%     30.1 30.1      
Oct 14 14:53 WNW 8 10 Mostly Clear FEW047 FEW250 54 28     37%     30.09 30.09      
Oct 14 13:53 W 8 10 Mostly Clear FEW042 FEW250 52 28     39%     30.09 30.09      
Oct 14 12:53 7 10 Mostly Clear FEW042 FEW250 51 29     42%     30.08 30.08      
Oct 14 11:53 NW 11 10 Mostly Clear FEW042 FEW250 50 29     44%     30.1 30.1      
Oct 14 10:53   10 Partly Cloudy SCT050 SCT250 49 31     50%     30.11 30.11      
Oct 14 09:53 WNW 9 10 Mostly Clear FEW060 FEW250 46 31     55% 41   30.11 30.11      
Oct 14 08:53 7 10 Mostly Clear FEW060 42 32     67% 38   30.11 30.11      
Oct 14 07:53 6 10 Mostly Clear FEW050 36 32     85% 31   30.08 30.09      
Oct 14 06:53 WSW 3 10 Mostly Clear FEW050 34 31     88% 31   30.06 30.06      
Oct 14 05:53 WSW 5 10 Mostly Clear FEW050 34 32     92% 30   30.05 30.05      
Oct 14 04:53 W 5 10 Mostly Cloudy BKN050 38 33     82% 34   30.03 30.03      
Oct 14 03:53 WSW 3 10 Cloudy OVC055 35 33     92% 32   30.01 30.02      
Oct 14 02:53 W 5 10 Clear CLR 40 31     70% 37   29.99 29.99      
Oct 14 01:53 W 3 10 Mostly Cloudy BKN050 41 34     76% 39   29.97 29.97      
Oct 14 00:53 Calm 10 Mostly Cloudy BKN060 41 33     73%     29.95 29.95      
Oct 13 23:53 WSW 3 10 Partly Cloudy SCT070 39 33     79% 37   29.94 29.94      
Oct 13 22:53 WNW 5 10 Partly Cloudy FEW050 SCT070 40 34     79% 37   29.92 29.92      
Oct 13 21:53 W 6 10 Mostly Cloudy SCT050 BKN070 42 35     76% 38   29.9 29.9      
Oct 13 20:53 NW 6 10 Cloudy FEW039 SCT050 OVC070 45 35     68% 42   29.88 29.88      
Oct 13 19:53 WSW 3 10 Cloudy SCT047 OVC070 44 41     89% 43   29.85 29.85     0
Oct 13 18:53 Calm 10 Cloudy FEW010 BKN055 OVC070 45 42     90%     29.82 29.82 0    
Oct 13 17:53 SSW 5 10 Cloudy FEW010 OVC060 45 42     90% 43   29.8 29.8      
Oct 13 16:53 SSW 6 10 Cloudy FEW012 SCT060 BKN120 OVC250 45 41     86% 42   29.78 29.78      
Oct 13 15:53 SSW 6 10 Cloudy FEW011 BKN065 OVC110 45 41     86% 42   29.77 29.77      
Oct 13 14:53 S 7 10 Cloudy SCT042 OVC120 45 40     82% 41   29.77 29.77      
Oct 13 13:53 SSW 5 10 Cloudy FEW042 BKN055 OVC120 45 40     82% 43   29.77 29.76 0   0
Oct 13 12:53 SW 5 8 Light Rain FEW023 BKN040 OVC047 44 39     82% 41   29.77 29.77 0    
Oct 13 11:53 W 7 7 Light Rain FEW027 BKN038 OVC047 44 37     76% 40   29.79 29.79 0    
Oct 13 10:53 Calm 8 Light Rain BKN036 OVC043 45 38     76%     29.79 29.78 0 0  
Oct 13 09:53 W 3 10 Cloudy BKN070 OVC120 44 36     73% 43   29.77 29.77      
Oct 13 05:53 WSW 5 10 Cloudy FEW045 OVC250 40 36     86% 37   29.73 29.72      
Oct 13 00:53 WNW 3 10 Cloudy OVC048 47 34     60% 46   29.67 29.67      
Oct 12 21:53   10 Mostly Cloudy BKN048 49 32     52%     29.63 29.63      
Oct 12 17:53 NNW 16 10 Mostly Cloudy BKN041 52 38     59%     29.5 29.49      
Oct 12 11:53 NW 8 10 Cloudy OVC055 52 48     86%     29.5 29.5      
Oct 12 08:53 NNW 7 8 Cloudy SCT005 BKN050 OVC100 47 45     93% 44   29.53 29.53      
Oct 12 07:53 WNW 5 7 Cloudy SCT005 BKN055 OVC100 45 44     97% 43   29.55 29.54     0
Notice The following observation data may not be complete
Oct 12 02:17   2.5 Light Rain and Fog/Mist BKN004 BKN046 OVC060          %         0    
Oct 12 02:00 NNE 9 2.5 Light Rain and Fog/Mist BKN005 BKN037 OVC050 46 45     96% 41   29.55   0    
Oct 12 01:53 N 8 2 Light Rain and Fog/Mist SCT004 BKN018 OVC050 46 45     96% 42   29.55 29.55 0   0
Oct 11 22:09 NNE 8 1.75 Light Drizzle and Fog/Mist OVC003 48 47     96% 44   29.59   0    
Oct 11 17:53 NNE 9 2.5 Light Rain and Fog/Mist OVC009 48 47     96% 44   29.7 29.69 0    
Oct 11 17:29 NNE 8 2.5 Light Rain and Fog/Mist BKN009 OVC012 48 47     96% 44   29.71   0    
Oct 11 14:20 ENE 7 1.5 Light Rain and Fog/Mist SCT009 OVC014 48 47     96% 45   29.8   0    
Oct 11 12:29 NE 3 1.25 Rain and Fog/Mist SCT010 OVC015 48 47     96% 47   29.85   0    
Oct 11 10:53 E 10 3 Rain and Fog/Mist BKN010 OVC015 48 46     93% 43   29.88 29.88 0 0  
Oct 11 08:53 ENE 8 1.5 Light Rain and Fog/Mist BKN004 OVC009 47 46     97% 43   29.94 29.94 0    
Oct 11 05:39 NE 9 2 Light Rain and Fog/Mist OVC005 47 46     97% 43   29.97   0    
Oct 11 05:25 NNE 7 4 Light Drizzle and Fog/Mist OVC005 48 46     93% 45   29.98   0    
Oct 11 02:41 NE 8 1.75 Light Drizzle and Fog/Mist OVC004 49 48     97% 45   30   0    
Oct 11 00:27 N 7 5 Fog/Mist SCT007 BKN013 OVC019 50 49     96%     30.03        
Oct 10 17:53 NNE 13 10 Cloudy OVC018 56 48     75%     30.02 30.01      
Oct 10 12:53 NE 14 10 Cloudy OVC016 63 54     72%     30 29.99      
Oct 10 00:53 S 5 10 Clear   65 64     97%     30.01 30.01      
Oct 09 18:53 SSW 5 10 Mostly Clear FEW250 70 64     81%     30.06 30.05      
Oct 09 17:53 S 9 10 Mostly Clear FEW250 71 63     76%   71 30.06 30.05      
Oct 09 12:53 S 10 10 Mostly Clear FEW075 FEW250 73 62     68%   73 30.11 30.1      
Oct 09 04:13 SSW 10 7 Cloudy OVC005 53 52     96%     30.26        
Oct 09 01:26 SSW 8 4 Fog/Mist BKN006 OVC010 49 48     97% 45   30.33        
Oct 09 00:37 S 9 4 Rain and Fog/Mist BKN014 OVC021 48 47     96% 44   30.35   0    
Oct 08 23:55 SSW 7 5 Rain and Fog/Mist OVC018 49 45     86% 46   30.37   0    
Oct 08 23:53 SSW 9 2.5 Rain and Fog/Mist OVC018 49 45     86% 45   30.37 30.37 0    
Oct 08 13:53 N 3 10 Mostly Clear FEW200 54 33     45%     30.49 30.49      
Oct 08 12:53 W 5 10 Mostly Clear FEW200 52 33     48%     30.52 30.52      
Oct 08 09:53 NNE 9 10 Partly Cloudy SCT200 48 32     54% 44   30.56 30.55      
Oct 08 05:53 NNE 7 10 Partly Cloudy SCT028 42 34     73% 38   30.51 30.51      
Oct 08 04:53 N 10 10 Partly Cloudy SCT028 44 34     67% 39   30.5 30.5      
Notice The following observation data may not be complete
Oct 08 03:16   10 Cloudy OVC029          %              
Oct 07 18:53   10 Mostly Clear FEW060 50 41     71%     30.34 30.34      
Oct 07 17:53 NE 10 10 Partly Cloudy FEW040 SCT060 SCT150 53 42     66%     30.31 30.31      
Oct 07 13:53   10 Mostly Cloudy BKN023 BKN045 60 45     57%     30.23 30.23      
Oct 07 12:53   10 Mostly Cloudy BKN022 BKN027 BKN044 56 46     69%     30.23 30.23      
Oct 07 11:53 NNE 14 10 Cloudy BKN018 OVC025 57 47     69%     30.23 30.22      
Oct 07 07:53 N 3 10 Cloudy BKN024 OVC100 56 53     90%     30.12 30.12     0
Oct 07 05:53 Calm 10 Light Rain FEW050 OVC070 54 52     93%     30.07 30.07 0    
Oct 06 23:26 SSW 11 10 Cloudy BKN020 OVC033 54 45     72%     30.11        
Oct 06 19:53 S 11 10 Cloudy OVC060 53 37     54%     30.15 30.14      
Oct 06 15:53 SSE 9 10 Mostly Cloudy FEW040 BKN070 BKN250 60 36     40%     30.17 30.17      
Oct 06 11:53 Calm 10 Mostly Cloudy SCT080 BKN120 54 30     40%     30.25 30.25      
Oct 06 07:53 NNE 7 10 Mostly Clear FEW150 FEW250 42 34     73% 38   30.29 30.3      
Oct 06 05:53 NNW 3 10 Partly Cloudy SCT150 SCT250 39 37     93% 37   30.25 30.25      
Oct 06 04:53 Calm 10 Mostly Cloudy BKN150 BKN250 39 38     96%     30.24 30.24      
Oct 06 03:53 Calm 10 Cloudy BKN150 OVC250 39 38     96%     30.23 30.22      
Oct 05 23:53 Calm 10 Cloudy OVC250 43 38     82%     30.23 30.23      
Oct 05 20:53 NW 3 10 Mostly Clear FEW250 45 37     74% 44   30.23 30.23      
Oct 05 17:53 NE 3 10 Mostly Cloudy BKN250 53 28     38%     30.2 30.2      
Oct 05 16:53 NE 8 10 Partly Cloudy SCT250 56 26     31%     30.18 30.18      
Oct 05 14:53 N 9 10 Mostly Clear FEW250 58 29     33%     30.18 30.18      
Oct 05 12:53 N 14 10 Mostly Clear FEW050 56 29     35%     30.22 30.21      
Oct 05 08:53   10 Mostly Clear FEW250 47 31     53%     30.24 30.24      
Oct 05 07:53 N 10 10 Partly Cloudy FEW028 SCT250 44 32     62% 39   30.23 30.23      
Oct 05 06:53 N 11 10 Mostly Clear FEW028 FEW250 43 33     68% 37   30.2 30.2      
Oct 05 05:53   10 Clear CLR 45 34     65%     30.18 30.18      
Oct 05 04:53 N 9 10 Mostly Clear FEW024 47 38     71% 43   30.14 30.14      
Oct 05 03:53 N 15 10 Partly Cloudy FEW024 SCT034 50 40     68%     30.09 30.09      
Oct 05 02:53 NNW 15 10 Mostly Clear FEW055 53 45     74%     30.06 30.06      
Oct 05 01:53 NW 11 10 Mostly Clear FEW055 56        %     30.02 30.02     0
Oct 05 00:53 WNW 10 10 Cloudy BKN044 OVC055 60        %     29.99 29.98      
Oct 05 00:15 WNW 9 7 Mostly Cloudy SCT006 BKN049 60        %     29.96        
Oct 04 23:53 WNW 8 5 Fog/Mist BKN005 OVC049 60        %     29.96 29.95      
Oct 04 22:53 Calm 4 Fog/Mist VV008 57        %     29.93 29.93   0  
Oct 04 22:33 NW 3 4 Fog/Mist OVC008 58        %     29.91        
Oct 04 21:53 Calm 4 Fog/Mist BKN012 57        %     29.9 29.9      
Oct 04 21:41 Calm 2 Fog/Mist BKN013 BKN085 58        %     29.9        
Oct 04 21:11 SSE 3 6 Fog/Mist FEW008 SCT013 BKN080 59        %     29.89        
Oct 04 20:53 S 5 6 Fog/Mist FEW008 BKN013 OVC085 60        %     29.89 29.88 0    
Oct 04 20:36 S 5 6 Fog/Mist BKN013 OVC050 60        %     29.89   0    
Oct 04 19:53 S 7 6 Light Drizzle and Fog/Mist BKN008 OVC013 60        %     29.88 29.88 0   0
Oct 04 18:53 S 8 6 Fog/Mist OVC007 60        %     29.87 29.86      
Oct 04 17:53 S 9 8 Cloudy OVC008 60        %     29.87 29.86      
Oct 04 16:53 SSW 8 8 Cloudy OVC008 61        %     29.87 29.86 0 0  
Oct 04 15:53 S 10 8 Cloudy OVC008 60        %     29.86 29.86      
Oct 04 15:34 S 10 9 Cloudy OVC010 60        %     29.86        
Oct 04 14:53 S 11 8 Cloudy OVC007 59        %     29.87 29.87      
Oct 04 13:53 S 15 8 Cloudy OVC006 58        %     29.87 29.87      
Oct 04 12:53 S 13 9 Cloudy OVC007 59        %     29.9 29.9      
Oct 04 11:53 S 11 9 Cloudy OVC006 57        %     29.94 29.93      
Oct 04 10:53 S 11 2 Fog/Mist OVC005 56        %     29.97 29.97      
Oct 04 09:53 S 10 2.5 Fog/Mist BKN007 OVC013 56        %     29.99 29.98      
Oct 04 08:53 S 10 8 Cloudy BKN006 OVC010 54        %     29.99 29.99      
Oct 04 08:37 S 10 8 Cloudy BKN009 OVC018 54        %     30        
Oct 04 07:53 S 9 7 Cloudy OVC016 53        %     30.01 30.01      
Oct 04 06:53 S 5 10 Cloudy OVC018 52 50     93%     30 29.99      
Oct 04 05:53 SSE 5 10 Cloudy OVC017 52 50     93%     30.01 30.01      
Oct 04 05:28 SSE 5 10 Cloudy OVC015 52 50     93%     30.02        
Oct 04 04:53 Calm 10 Cloudy OVC014 53 50     89%     30.03 30.02      
Oct 04 03:53 Calm 10 Cloudy OVC014 53 49     86%     30.03 30.03      
Oct 04 02:53 Calm 10 Cloudy OVC012 53 49     86%     30.04 30.04      
Oct 04 01:53 Calm 10 Cloudy OVC012 53 49     86%     30.06 30.05      
Oct 04 00:53 Calm 10 Cloudy OVC013 54 49     83%     30.07 30.07      
Oct 03 23:53 ENE 5 10 Cloudy OVC014 54 49     83%     30.08 30.08      
Oct 03 22:53 NNE 3 10 Cloudy OVC014 54 49     83%     30.11 30.11      
Oct 03 21:53 NNE 8 10 Clear   55 49     80%     30.11 30.1      
Sep 25 09:53 SSE 5 10 Mostly Cloudy FEW037 SCT120 BKN200 53 43     69%     30.61 30.61      
Sep 25 08:53 Calm 10 Mostly Cloudy FEW036 SCT120 BKN250 46 39     76%     30.63 30.63      
May 15 06:53 S 7 0.25 Fog OVC002 49 49     100% 46   29.81 29.8      
May 15 03:20 S 6 1 Fog/Mist OVC002 49 49     100% 46   29.83        
May 14 18:53 S 14 10 Mostly Clear FEW250 56 49     77%     29.82 29.82      
May 14 12:53 S 14 10 Mostly Clear FEW030 61 48     62%     29.89 29.89      
May 14 07:53 SSW 10 10 Cloudy OVC011 49 44     83% 45   30 30      
May 13 20:53 S 9 10 Mostly Clear FEW250 49 45     86% 45   30.08 30.08      
May 13 13:53 SSE 10 10 Mostly Clear FEW060 67 28     23%     30.12 30.11      
May 13 05:31 Calm 0.25 Fog VV001 36 36     100%     30.17        
May 12 19:53 S 9 10 Mostly Cloudy FEW050 BKN250 50 30     46% 46   30.1 30.1      
May 12 01:53 S 3 10 Clear CLR 40 23     50% 38   30.16 30.16      
Jun 11 12:53 SSW 15 10 Mostly Cloudy SCT150 BKN250 87 59     39%   86 29.75 29.74      
Jun 10 22:53 SSW 6 10 Clear   58 51     78%     29.92 29.91      
Jun 10 20:53 S 7 10 Mostly Cloudy FEW060 BKN250 61 51     70%     29.94 29.93      
Jun 10 17:53   10 Partly Cloudy FEW060 SCT250 68 48     49%     29.91 29.9      
Jun 09 21:53 W 7 10 Mostly Cloudy BKN120 57 55     93%     29.63 29.62      
Jun 09 17:59 3 10 Thunderstorms and Rain FEW055 SCT070 OVC090 55 53     93%     29.51   0    
Jun 09 17:53 6 10 Light Rain SCT070 OVC090 55 53     93%     29.51 29.5 0    
Jun 08 18:53   10 Mostly Cloudy BKN250 68 43     40%     29.89 29.88      
Jun 08 16:53   10 Mostly Cloudy SCT150 BKN250 76 50     40%   75 29.87 29.87      
Jun 06 08:45   10 Mostly Cloudy SCT015 BKN080 BKN150 50 41     71%     29.98        
Jun 05 18:53 SSE 6 10 Cloudy FEW060 OVC100 57 48     72%     29.99 29.99